Location: Artiguedieu
(43.5000°N, 0.5454°E)
Time: 09:39:24
(UTC+00:00)

Vanguard 1 Rocket - Pass Details

Date: 06 August 2021
Orbit: 650 x 4226 km, 34.3° (Epoch: 24 September)

Event Time Altitude Azimuth Distance (km) Brightness Sun altitude
Rises 07:55:26 0° 227° (SW) 8,453 12.0 31.5°
Reaches altitude 10° 08:01:47 10° 223° (SW) 7,404 11.8 32.6°
Maximum altitude 08:24:35 48° 159° (SSE) 4,014 11.5 36.7°
Drops below altitude 10° 08:38:49 10° 91° (E) 4,844 12.3 39.2°
Sets 08:41:56 0° 86° (E) 5,462 12.2 39.7°
